Location: Great Snoring
(52.8667°N, 0.8833°E)
Time: 21:25:04
(UTC+00:00)

Cosmos 381 Rocket - Pass Details

Date: 19 May 2025
Orbit: 954 x 995 km, 74.0° (Epoch: 18 June)

Event Time Altitude Azimuth Distance (km) Brightness Sun altitude
Exits shadow 23:17:14 21° 200° (SSW) 2,037 5.7 -16.7°
Maximum altitude 23:21:40 85° 115° (ESE) 992 4.5 -16.8°
Drops below altitude 10° 23:28:05 10° 27° (NNE) 2,758 7.7 -16.9°
Sets 23:30:40 0° 27° (NNE) 3,715 8.5 -17.0°
